Year,Month,Day,Hour,Minute,Value (Times are PST for temperature in C)
2015,06,08,00,00,18.50
2015,06,08,00,01,18.50
2015,06,08,00,02,18.50
2015,06,08,00,03,18.50
2015,06,08,00,04,18.50
2015,06,08,00,05,18.50
2015,06,08,00,06,18.50
2015,06,08,00,07,18.50
2015,06,08,00,08,18.40
2015,06,08,00,09,18.40
2015,06,08,00,10,18.40
2015,06,08,00,11,18.40
2015,06,08,00,12,18.40
2015,06,08,00,13,18.40
2015,06,08,00,14,18.40
2015,06,08,00,15,18.40
2015,06,08,00,16,18.40
2015,06,08,00,17,18.40
2015,06,08,00,18,18.40
2015,06,08,00,19,18.30
2015,06,08,00,20,18.30
2015,06,08,00,21,18.30
2015,06,08,00,22,18.30
2015,06,08,00,23,18.30
2015,06,08,00,24,18.30
2015,06,08,00,25,18.20
2015,06,08,00,26,18.20
2015,06,08,00,27,18.20
2015,06,08,00,28,18.20
2015,06,08,00,29,18.20
2015,06,08,00,30,18.20
2015,06,08,00,31,18.20
2015,06,08,00,32,18.10
2015,06,08,00,33,18.10
2015,06,08,00,34,18.10
2015,06,08,00,35,18.00
2015,06,08,00,36,17.90
2015,06,08,00,37,17.90
2015,06,08,00,38,17.90
2015,06,08,00,39,17.90
2015,06,08,00,40,17.80
2015,06,08,00,41,17.80
2015,06,08,00,42,17.70
2015,06,08,00,43,17.70
2015,06,08,00,44,17.60
2015,06,08,00,45,17.60
2015,06,08,00,46,17.60
2015,06,08,00,47,17.50
2015,06,08,00,48,17.50
2015,06,08,00,49,17.50
2015,06,08,00,50,17.40
2015,06,08,00,51,17.40
2015,06,08,00,52,17.30
2015,06,08,00,53,17.30
2015,06,08,00,54,17.30
2015,06,08,00,55,17.30
2015,06,08,00,56,17.30
2015,06,08,00,57,17.30
2015,06,08,00,58,17.30
2015,06,08,00,59,17.20
2015,06,08,01,00,17.20
2015,06,08,01,01,17.20
2015,06,08,01,02,17.20
2015,06,08,01,03,17.20
2015,06,08,01,04,17.10
2015,06,08,01,05,17.10
2015,06,08,01,06,17.10
2015,06,08,01,07,17.10
2015,06,08,01,08,17.10
2015,06,08,01,09,17.10
2015,06,08,01,10,17.10
2015,06,08,01,11,17.00
2015,06,08,01,12,17.00
2015,06,08,01,13,17.00
2015,06,08,01,14,17.00
2015,06,08,01,15,17.00
2015,06,08,01,16,17.00
2015,06,08,01,17,17.00
2015,06,08,01,18,17.00
2015,06,08,01,19,17.00
2015,06,08,01,20,17.00
2015,06,08,01,21,17.10
2015,06,08,01,22,17.10
2015,06,08,01,23,17.10
2015,06,08,01,24,17.10
2015,06,08,01,25,17.10
2015,06,08,01,26,17.10
2015,06,08,01,27,17.10
2015,06,08,01,28,17.10
2015,06,08,01,29,17.10
2015,06,08,01,30,17.10
2015,06,08,01,31,17.10
2015,06,08,01,32,17.10
2015,06,08,01,33,17.10
2015,06,08,01,34,17.00
2015,06,08,01,35,17.00
2015,06,08,01,36,17.00
2015,06,08,01,37,16.90
2015,06,08,01,38,16.90
2015,06,08,01,39,16.90
2015,06,08,01,40,16.80
2015,06,08,01,41,16.70
2015,06,08,01,42,16.70
2015,06,08,01,43,16.60
2015,06,08,01,44,16.50
2015,06,08,01,45,16.40
2015,06,08,01,46,16.30
2015,06,08,01,47,16.20
2015,06,08,01,48,16.20
2015,06,08,01,49,16.10
2015,06,08,01,50,16.10
2015,06,08,01,51,15.90
2015,06,08,01,52,15.90
2015,06,08,01,53,15.80
2015,06,08,01,54,15.80
2015,06,08,01,55,15.80
2015,06,08,01,56,15.80
2015,06,08,01,57,15.80
2015,06,08,01,58,15.80
2015,06,08,01,59,15.70
2015,06,08,02,00,15.70
2015,06,08,02,01,15.70
2015,06,08,02,02,15.70
2015,06,08,02,03,15.70
2015,06,08,02,04,15.70
2015,06,08,02,05,15.60
2015,06,08,02,06,15.60
2015,06,08,02,07,15.60
2015,06,08,02,08,15.60
2015,06,08,02,09,15.60
2015,06,08,02,10,15.50
2015,06,08,02,11,15.50
2015,06,08,02,12,15.50
2015,06,08,02,13,15.40
2015,06,08,02,14,15.40
2015,06,08,02,15,15.40
2015,06,08,02,16,15.30
2015,06,08,02,17,15.30
2015,06,08,02,18,15.30
2015,06,08,02,19,15.30
2015,06,08,02,20,15.30
2015,06,08,02,21,15.30
2015,06,08,02,22,15.30
2015,06,08,02,23,15.30
2015,06,08,02,24,15.30
2015,06,08,02,25,15.30
2015,06,08,02,26,15.30
2015,06,08,02,27,15.30
2015,06,08,02,28,15.30
2015,06,08,02,29,15.30
2015,06,08,02,30,15.40
2015,06,08,02,31,15.40
2015,06,08,02,32,15.40
2015,06,08,02,33,15.40
2015,06,08,02,34,15.40
2015,06,08,02,35,15.40
2015,06,08,02,36,15.40
2015,06,08,02,37,15.40
2015,06,08,02,38,15.50
2015,06,08,02,39,15.50
2015,06,08,02,40,15.50
2015,06,08,02,41,15.50
2015,06,08,02,42,15.50
2015,06,08,02,43,15.50
2015,06,08,02,44,15.50
2015,06,08,02,45,15.50
2015,06,08,02,46,15.50
2015,06,08,02,47,15.50
2015,06,08,02,48,15.50
2015,06,08,02,49,15.50
2015,06,08,02,50,15.50
2015,06,08,02,51,15.50
2015,06,08,02,52,15.50
2015,06,08,02,53,15.40
2015,06,08,02,54,15.40
2015,06,08,02,55,15.40
2015,06,08,02,56,15.40
2015,06,08,02,57,15.30
2015,06,08,02,58,15.30
2015,06,08,02,59,15.30
2015,06,08,03,00,15.30
2015,06,08,03,01,15.30
2015,06,08,03,02,15.20
2015,06,08,03,03,15.20
2015,06,08,03,04,15.20
2015,06,08,03,05,15.10
2015,06,08,03,06,15.10
2015,06,08,03,07,15.10
2015,06,08,03,08,15.00
2015,06,08,03,09,15.00
2015,06,08,03,10,15.00
2015,06,08,03,11,14.90
2015,06,08,03,12,14.90
2015,06,08,03,13,14.90
2015,06,08,03,14,14.90
2015,06,08,03,15,14.80
2015,06,08,03,16,14.80
2015,06,08,03,17,14.80
2015,06,08,03,18,14.80
2015,06,08,03,19,14.80
2015,06,08,03,20,14.80
2015,06,08,03,21,14.80
2015,06,08,03,22,14.70
2015,06,08,03,23,14.70
2015,06,08,03,24,14.70
2015,06,08,03,25,14.70
2015,06,08,03,26,14.60
2015,06,08,03,27,14.60
2015,06,08,03,28,14.60
2015,06,08,03,29,14.60
2015,06,08,03,30,14.60
2015,06,08,03,31,14.60
2015,06,08,03,32,14.60
2015,06,08,03,33,14.50
2015,06,08,03,34,14.50
2015,06,08,03,35,14.50
2015,06,08,03,36,14.50
2015,06,08,03,37,14.50
2015,06,08,03,38,14.50
2015,06,08,03,39,14.50
2015,06,08,03,40,14.50
2015,06,08,03,41,14.50
2015,06,08,03,42,14.50
2015,06,08,03,43,14.50
2015,06,08,03,44,14.50
2015,06,08,03,45,14.50
2015,06,08,03,46,14.50
2015,06,08,03,47,14.50
2015,06,08,03,48,14.50
2015,06,08,03,49,14.50
2015,06,08,03,50,14.50
2015,06,08,03,51,14.50
2015,06,08,03,52,14.40
2015,06,08,03,53,14.40
2015,06,08,03,54,14.40
2015,06,08,03,55,14.40
2015,06,08,03,56,14.40
2015,06,08,03,57,14.40
2015,06,08,03,58,14.40
2015,06,08,03,59,14.40
2015,06,08,04,00,14.40
2015,06,08,04,01,14.40
2015,06,08,04,02,14.40
2015,06,08,04,03,14.30
2015,06,08,04,04,14.30
2015,06,08,04,05,14.30
2015,06,08,04,06,14.30
2015,06,08,04,07,14.30
2015,06,08,04,08,14.30
2015,06,08,04,09,14.30
2015,06,08,04,10,14.30
2015,06,08,04,11,14.30
2015,06,08,04,12,14.30
2015,06,08,04,13,14.30
2015,06,08,04,14,14.30
2015,06,08,04,15,14.30
2015,06,08,04,16,14.30
2015,06,08,04,17,14.20
2015,06,08,04,18,14.20
2015,06,08,04,19,14.20
2015,06,08,04,20,14.20
2015,06,08,04,21,14.20
2015,06,08,04,22,14.20
2015,06,08,04,23,14.20
2015,06,08,04,24,14.30
2015,06,08,04,25,14.30
2015,06,08,04,26,14.30
2015,06,08,04,27,14.30
2015,06,08,04,28,14.30
2015,06,08,04,29,14.30
2015,06,08,04,30,14.30
2015,06,08,04,31,14.40
2015,06,08,04,32,14.40
2015,06,08,04,33,14.40
2015,06,08,04,34,14.40
2015,06,08,04,35,14.40
2015,06,08,04,36,14.50
2015,06,08,04,37,14.50
2015,06,08,04,38,14.50
2015,06,08,04,39,14.60
2015,06,08,04,40,14.60
2015,06,08,04,41,14.60
2015,06,08,04,42,14.60
2015,06,08,04,43,14.60
2015,06,08,04,44,14.50
2015,06,08,04,45,14.50
2015,06,08,04,46,14.50
2015,06,08,04,47,14.40
2015,06,08,04,48,14.40
2015,06,08,04,49,14.40
2015,06,08,04,50,14.30
2015,06,08,04,51,14.30
2015,06,08,04,52,14.20
2015,06,08,04,53,14.20
2015,06,08,04,54,14.20
2015,06,08,04,55,14.20
2015,06,08,04,56,14.10
2015,06,08,04,57,14.10
2015,06,08,04,58,14.10
2015,06,08,04,59,14.10
2015,06,08,05,00,14.10
2015,06,08,05,01,14.10
2015,06,08,05,02,14.10
2015,06,08,05,03,14.00
2015,06,08,05,04,14.00
2015,06,08,05,05,14.00
2015,06,08,05,06,14.00
2015,06,08,05,07,14.00
2015,06,08,05,08,14.00
2015,06,08,05,09,14.00
2015,06,08,05,10,14.00
2015,06,08,05,11,14.00
2015,06,08,05,12,14.00
2015,06,08,05,13,14.00
2015,06,08,05,14,14.00
2015,06,08,05,15,14.00
2015,06,08,05,16,14.00
2015,06,08,05,17,13.90
2015,06,08,05,18,13.90
2015,06,08,05,19,13.90
2015,06,08,05,20,13.90
2015,06,08,05,21,13.90
2015,06,08,05,22,13.90
2015,06,08,05,23,13.90
2015,06,08,05,24,13.90
2015,06,08,05,25,13.80
2015,06,08,05,26,13.80
2015,06,08,05,27,13.90
2015,06,08,05,28,13.90
2015,06,08,05,29,13.90
2015,06,08,05,30,13.90
2015,06,08,05,31,13.80
2015,06,08,05,32,13.80
2015,06,08,05,33,13.80
2015,06,08,05,34,13.80
2015,06,08,05,35,13.80
2015,06,08,05,36,13.80
2015,06,08,05,37,13.80
2015,06,08,05,38,13.80
2015,06,08,05,39,13.80
2015,06,08,05,40,13.80
2015,06,08,05,41,13.80
2015,06,08,05,42,13.80
2015,06,08,05,43,13.80
2015,06,08,05,44,13.70
2015,06,08,05,45,13.70
2015,06,08,05,46,13.70
2015,06,08,05,47,13.70
2015,06,08,05,48,13.70
2015,06,08,05,49,13.70
2015,06,08,05,50,13.70
2015,06,08,05,51,13.70
2015,06,08,05,52,13.70
2015,06,08,05,53,13.70
2015,06,08,05,54,13.70
2015,06,08,05,55,13.70
2015,06,08,05,56,13.70
2015,06,08,05,57,13.70
2015,06,08,05,58,13.70
2015,06,08,05,59,13.70
2015,06,08,06,00,13.70
2015,06,08,06,01,13.70
2015,06,08,06,02,13.70
2015,06,08,06,03,13.70
2015,06,08,06,04,13.80
2015,06,08,06,05,13.80
2015,06,08,06,06,13.80
2015,06,08,06,07,13.90
2015,06,08,06,08,13.90
2015,06,08,06,09,13.90
2015,06,08,06,10,14.00
2015,06,08,06,11,14.00
2015,06,08,06,12,14.00
2015,06,08,06,13,14.00
2015,06,08,06,14,14.00
2015,06,08,06,15,14.00
2015,06,08,06,16,14.00
2015,06,08,06,17,14.00
2015,06,08,06,18,14.10
2015,06,08,06,19,14.10
2015,06,08,06,20,14.10
2015,06,08,06,21,14.10
2015,06,08,06,22,14.00
2015,06,08,06,23,14.00
2015,06,08,06,24,14.00
2015,06,08,06,25,14.00
2015,06,08,06,26,14.00
2015,06,08,06,27,14.00
2015,06,08,06,28,14.00
2015,06,08,06,29,14.00
2015,06,08,06,30,14.00
2015,06,08,06,31,14.00
2015,06,08,06,32,14.00
2015,06,08,06,33,14.00
2015,06,08,06,34,14.00
2015,06,08,06,35,14.00
2015,06,08,06,36,14.00
2015,06,08,06,37,14.00
2015,06,08,06,38,14.00
2015,06,08,06,39,14.00
2015,06,08,06,40,14.00
2015,06,08,06,41,14.00
2015,06,08,06,42,14.10
2015,06,08,06,43,14.10
2015,06,08,06,44,14.10
2015,06,08,06,45,14.10
2015,06,08,06,46,14.10
2015,06,08,06,47,14.10
2015,06,08,06,48,14.10
2015,06,08,06,49,14.20
2015,06,08,06,50,14.20
2015,06,08,06,51,14.20
2015,06,08,06,52,14.20
2015,06,08,06,53,14.20
2015,06,08,06,54,14.20
2015,06,08,06,55,14.20
2015,06,08,06,56,14.30
2015,06,08,06,57,14.30
2015,06,08,06,58,14.30
2015,06,08,06,59,14.40
2015,06,08,07,00,14.40
2015,06,08,07,01,14.50
2015,06,08,07,02,14.50
2015,06,08,07,03,14.60
2015,06,08,07,04,14.60
2015,06,08,07,05,14.60
2015,06,08,07,06,14.70
2015,06,08,07,07,14.70
2015,06,08,07,08,14.80
2015,06,08,07,09,14.80
2015,06,08,07,10,14.80
2015,06,08,07,11,14.90
2015,06,08,07,12,14.90
2015,06,08,07,13,15.00
2015,06,08,07,14,15.10
2015,06,08,07,15,15.10
2015,06,08,07,16,15.20
2015,06,08,07,17,15.30
2015,06,08,07,18,15.40
2015,06,08,07,19,15.50
2015,06,08,07,20,15.60
2015,06,08,07,21,15.80
2015,06,08,07,22,15.80
2015,06,08,07,23,15.90
2015,06,08,07,24,16.00
2015,06,08,07,25,16.10
2015,06,08,07,26,16.20
2015,06,08,07,27,16.30
2015,06,08,07,28,16.40
2015,06,08,07,29,16.60
2015,06,08,07,30,16.70
2015,06,08,07,31,16.80
2015,06,08,07,32,16.90
2015,06,08,07,33,17.00
2015,06,08,07,34,17.20
2015,06,08,07,35,17.30
2015,06,08,07,36,17.40
2015,06,08,07,37,17.50
2015,06,08,07,38,17.50
2015,06,08,07,39,17.70
2015,06,08,07,40,17.70
2015,06,08,07,41,17.80
2015,06,08,07,42,17.90
2015,06,08,07,43,17.90
2015,06,08,07,44,17.90
2015,06,08,07,45,18.00
2015,06,08,07,46,18.10
2015,06,08,07,47,18.10
2015,06,08,07,48,18.10
2015,06,08,07,49,18.10
2015,06,08,07,50,18.20
2015,06,08,07,51,18.20
2015,06,08,07,52,18.20
2015,06,08,07,53,18.20
2015,06,08,07,54,18.20
2015,06,08,07,55,18.20
2015,06,08,07,56,18.30
2015,06,08,07,57,18.30
2015,06,08,07,58,18.30
2015,06,08,07,59,18.40
2015,06,08,08,00,18.40
2015,06,08,08,01,18.40
2015,06,08,08,02,18.50
2015,06,08,08,03,18.50
2015,06,08,08,04,18.50
2015,06,08,08,05,18.60
2015,06,08,08,06,18.60
2015,06,08,08,07,18.70
2015,06,08,08,08,18.80
2015,06,08,08,09,18.90
2015,06,08,08,10,18.90
2015,06,08,08,11,19.00
2015,06,08,08,12,19.10
2015,06,08,08,13,19.10
2015,06,08,08,14,19.10
2015,06,08,08,15,19.20
2015,06,08,08,16,19.20
2015,06,08,08,17,19.30
2015,06,08,08,18,19.30
2015,06,08,08,19,19.40
2015,06,08,08,20,19.50
2015,06,08,08,21,19.60
2015,06,08,08,22,19.60
2015,06,08,08,23,19.70
2015,06,08,08,24,19.80
2015,06,08,08,25,19.90
2015,06,08,08,26,20.00
2015,06,08,08,27,20.20
2015,06,08,08,28,20.30
2015,06,08,08,29,20.50
2015,06,08,08,30,20.60
2015,06,08,08,31,20.70
2015,06,08,08,32,20.80
2015,06,08,08,33,20.90
2015,06,08,08,34,21.00
2015,06,08,08,35,21.00
2015,06,08,08,36,21.20
2015,06,08,08,37,21.20
2015,06,08,08,38,21.30
2015,06,08,08,39,21.30
2015,06,08,08,40,21.40
2015,06,08,08,41,21.50
2015,06,08,08,42,21.60
2015,06,08,08,43,21.70
2015,06,08,08,44,21.80
2015,06,08,08,45,21.90
2015,06,08,08,46,22.00
2015,06,08,08,47,22.10
2015,06,08,08,48,22.10
2015,06,08,08,49,22.10
2015,06,08,08,50,22.20
2015,06,08,08,51,22.20
2015,06,08,08,52,22.30
2015,06,08,08,53,22.30
2015,06,08,08,54,22.40
2015,06,08,08,55,22.50
2015,06,08,08,56,22.60
2015,06,08,08,57,22.70
2015,06,08,08,58,22.70
2015,06,08,08,59,22.80
2015,06,08,09,00,22.90
2015,06,08,09,01,23.00
2015,06,08,09,02,23.10
2015,06,08,09,03,23.10
2015,06,08,09,04,23.10
2015,06,08,09,05,23.10
2015,06,08,09,06,23.20
2015,06,08,09,07,23.20
2015,06,08,09,08,23.20
2015,06,08,09,09,23.30
2015,06,08,09,10,23.30
2015,06,08,09,11,23.30
2015,06,08,09,12,23.40
2015,06,08,09,13,23.50
2015,06,08,09,14,23.60
2015,06,08,09,15,23.70
2015,06,08,09,16,23.80
2015,06,08,09,17,23.80
2015,06,08,09,18,23.90
2015,06,08,09,19,23.90
2015,06,08,09,20,24.00
2015,06,08,09,21,24.10
2015,06,08,09,22,24.10
2015,06,08,09,23,24.10
2015,06,08,09,24,24.10
2015,06,08,09,25,24.10
2015,06,08,09,26,24.10
2015,06,08,09,27,24.10
2015,06,08,09,28,24.20
2015,06,08,09,29,24.30
2015,06,08,09,30,24.20
2015,06,08,09,31,24.30
2015,06,08,09,32,24.30
2015,06,08,09,33,24.40
2015,06,08,09,34,24.40
2015,06,08,09,35,24.50
2015,06,08,09,36,24.50
2015,06,08,09,37,24.60
2015,06,08,09,38,24.60
2015,06,08,09,39,24.60
2015,06,08,09,40,24.60
2015,06,08,09,41,24.50
2015,06,08,09,42,24.60
2015,06,08,09,43,24.70
2015,06,08,09,44,24.70
2015,06,08,09,45,24.70
2015,06,08,09,46,24.70
2015,06,08,09,47,24.60
2015,06,08,09,48,24.50
2015,06,08,09,49,24.30
2015,06,08,09,50,24.20
2015,06,08,09,51,24.10
2015,06,08,09,52,24.10
2015,06,08,09,53,24.10
2015,06,08,09,54,24.10
2015,06,08,09,55,24.00
2015,06,08,09,56,23.90
2015,06,08,09,57,23.90
2015,06,08,09,58,23.90
2015,06,08,09,59,24.00
2015,06,08,10,00,24.10
2015,06,08,10,01,24.10
2015,06,08,10,02,24.30
2015,06,08,10,03,24.30
2015,06,08,10,04,24.40
2015,06,08,10,05,24.40
2015,06,08,10,06,24.50
2015,06,08,10,07,24.50
2015,06,08,10,08,24.40
2015,06,08,10,09,24.40
2015,06,08,10,10,24.30
2015,06,08,10,11,24.40
2015,06,08,10,12,24.40
2015,06,08,10,13,24.40
2015,06,08,10,14,24.40
2015,06,08,10,15,24.50
2015,06,08,10,16,24.60
2015,06,08,10,17,24.70
2015,06,08,10,18,24.70
2015,06,08,10,19,24.60
2015,06,08,10,20,24.60
2015,06,08,10,21,24.60
2015,06,08,10,22,24.60
2015,06,08,10,23,24.60
2015,06,08,10,24,24.50
2015,06,08,10,25,24.40
2015,06,08,10,26,24.40
2015,06,08,10,27,24.40
2015,06,08,10,28,24.50
2015,06,08,10,29,24.60
2015,06,08,10,30,24.70
2015,06,08,10,31,24.70
2015,06,08,10,32,24.80
2015,06,08,10,33,24.80
2015,06,08,10,34,24.90
2015,06,08,10,35,25.00
2015,06,08,10,36,25.10
2015,06,08,10,37,25.30
2015,06,08,10,38,25.30
2015,06,08,10,39,25.40
2015,06,08,10,40,25.40
2015,06,08,10,41,25.40
2015,06,08,10,42,25.40
2015,06,08,10,43,25.30
2015,06,08,10,44,25.20
2015,06,08,10,45,25.10
2015,06,08,10,46,24.90
2015,06,08,10,47,24.90
2015,06,08,10,48,24.80
2015,06,08,10,49,24.70
2015,06,08,10,50,24.70
2015,06,08,10,51,24.80
2015,06,08,10,52,24.80
2015,06,08,10,53,24.90
2015,06,08,10,54,25.00
2015,06,08,10,55,25.10
2015,06,08,10,56,25.10
2015,06,08,10,57,25.10
2015,06,08,10,58,25.00
2015,06,08,10,59,25.00
2015,06,08,11,00,25.00
2015,06,08,11,01,25.00
2015,06,08,11,02,25.10
2015,06,08,11,03,25.20
2015,06,08,11,04,25.20
2015,06,08,11,05,25.30
2015,06,08,11,06,25.40
2015,06,08,11,07,25.40
2015,06,08,11,08,25.50
2015,06,08,11,09,25.60
2015,06,08,11,10,25.70
2015,06,08,11,11,25.70
2015,06,08,11,12,25.80
2015,06,08,11,13,25.90
2015,06,08,11,14,25.90
2015,06,08,11,15,25.90
2015,06,08,11,16,26.00
2015,06,08,11,17,26.00
2015,06,08,11,18,26.10
2015,06,08,11,19,26.10
2015,06,08,11,20,26.10
2015,06,08,11,21,26.00
2015,06,08,11,22,26.00
2015,06,08,11,23,25.90
2015,06,08,11,24,25.90
2015,06,08,11,25,25.80
2015,06,08,11,26,25.80
2015,06,08,11,27,25.70
2015,06,08,11,28,25.60
2015,06,08,11,29,25.60
2015,06,08,11,30,25.40
2015,06,08,11,31,25.40
2015,06,08,11,32,25.30
2015,06,08,11,33,25.30
2015,06,08,11,34,25.30
2015,06,08,11,35,25.20
2015,06,08,11,36,25.00
2015,06,08,11,37,25.10
2015,06,08,11,38,25.10
2015,06,08,11,39,25.00
2015,06,08,11,40,25.10
2015,06,08,11,41,25.10
2015,06,08,11,42,25.10
2015,06,08,11,43,25.10
2015,06,08,11,44,25.10
2015,06,08,11,45,25.10
2015,06,08,11,46,25.10
2015,06,08,11,47,25.10
2015,06,08,11,48,25.20
2015,06,08,11,49,25.20
2015,06,08,11,50,25.10
2015,06,08,11,51,25.00
2015,06,08,11,52,24.80
2015,06,08,11,53,24.60
2015,06,08,11,54,24.50
2015,06,08,11,55,24.50
2015,06,08,11,56,24.60
2015,06,08,11,57,24.70
2015,06,08,11,58,24.70
2015,06,08,11,59,24.80
2015,06,08,12,00,24.90
2015,06,08,12,01,25.00
2015,06,08,12,02,25.20
2015,06,08,12,03,25.30
2015,06,08,12,04,25.50
2015,06,08,12,05,25.70
2015,06,08,12,06,25.80
2015,06,08,12,07,25.90
2015,06,08,12,08,26.10
2015,06,08,12,09,26.00
2015,06,08,12,10,25.90
2015,06,08,12,11,25.90
2015,06,08,12,12,25.80
2015,06,08,12,13,25.70
2015,06,08,12,14,25.80
2015,06,08,12,15,25.80
2015,06,08,12,16,25.90
2015,06,08,12,17,25.90
2015,06,08,12,18,25.90
2015,06,08,12,19,25.90
2015,06,08,12,20,26.00
2015,06,08,12,21,26.10
2015,06,08,12,22,26.20
2015,06,08,12,23,26.40
2015,06,08,12,24,26.50
2015,06,08,12,25,26.60
2015,06,08,12,26,26.70
2015,06,08,12,27,26.70
2015,06,08,12,28,26.80
2015,06,08,12,29,26.90
2015,06,08,12,30,26.90
2015,06,08,12,31,27.10
2015,06,08,12,32,27.10
2015,06,08,12,33,27.20
2015,06,08,12,34,27.20
2015,06,08,12,35,27.20
2015,06,08,12,36,27.30
2015,06,08,12,37,27.30
2015,06,08,12,38,27.30
2015,06,08,12,39,27.30
2015,06,08,12,40,27.40
2015,06,08,12,41,27.40
2015,06,08,12,42,27.30
2015,06,08,12,43,27.30
2015,06,08,12,44,27.10
2015,06,08,12,45,26.90
2015,06,08,12,46,26.70
2015,06,08,12,47,26.70
2015,06,08,12,48,26.60
2015,06,08,12,49,26.60
2015,06,08,12,50,26.50
2015,06,08,12,51,26.50
2015,06,08,12,52,26.50
2015,06,08,12,53,26.50
2015,06,08,12,54,26.60
2015,06,08,12,55,26.60
2015,06,08,12,56,26.70
2015,06,08,12,57,26.80
2015,06,08,12,58,26.80
2015,06,08,12,59,26.80
2015,06,08,13,00,26.80
2015,06,08,13,01,26.80
2015,06,08,13,02,26.80
2015,06,08,13,03,26.80
2015,06,08,13,04,26.70
2015,06,08,13,05,26.70
2015,06,08,13,06,26.70
2015,06,08,13,07,26.70
2015,06,08,13,08,26.60
2015,06,08,13,09,26.60
2015,06,08,13,10,26.70
2015,06,08,13,11,26.80
2015,06,08,13,12,26.90
2015,06,08,13,13,26.90
2015,06,08,13,14,26.80
2015,06,08,13,15,26.80
2015,06,08,13,16,26.80
2015,06,08,13,17,26.80
2015,06,08,13,18,26.80
2015,06,08,13,19,26.70
2015,06,08,13,20,26.60
2015,06,08,13,21,26.70
2015,06,08,13,22,26.70
2015,06,08,13,23,26.70
2015,06,08,13,24,26.70
2015,06,08,13,25,26.70
2015,06,08,13,26,26.60
2015,06,08,13,27,26.60
2015,06,08,13,28,26.60
2015,06,08,13,29,26.60
2015,06,08,13,30,26.60
2015,06,08,13,31,26.60
2015,06,08,13,32,26.60
2015,06,08,13,33,26.60
2015,06,08,13,34,26.70
2015,06,08,13,35,26.80
2015,06,08,13,36,26.90
2015,06,08,13,37,27.10
2015,06,08,13,38,27.00
2015,06,08,13,39,26.90
2015,06,08,13,40,26.90
2015,06,08,13,41,26.90
2015,06,08,13,42,27.00
2015,06,08,13,43,27.10
2015,06,08,13,44,27.20
2015,06,08,13,45,27.20
2015,06,08,13,46,27.20
2015,06,08,13,47,27.20
2015,06,08,13,48,27.10
2015,06,08,13,49,27.00
2015,06,08,13,50,26.90
2015,06,08,13,51,26.90
2015,06,08,13,52,26.90
2015,06,08,13,53,26.90
2015,06,08,13,54,26.90
2015,06,08,13,55,26.90
2015,06,08,13,56,26.90
2015,06,08,13,57,27.00
2015,06,08,13,58,26.90
2015,06,08,13,59,26.90
2015,06,08,14,00,27.10
2015,06,08,14,01,27.10
2015,06,08,14,02,27.20
2015,06,08,14,03,27.20
2015,06,08,14,04,27.20
2015,06,08,14,05,27.20
2015,06,08,14,06,27.30
2015,06,08,14,07,27.30
2015,06,08,14,08,27.30
2015,06,08,14,09,27.30
2015,06,08,14,10,27.30
2015,06,08,14,11,27.30
2015,06,08,14,12,27.40
2015,06,08,14,13,27.40
2015,06,08,14,14,27.30
2015,06,08,14,15,27.30
2015,06,08,14,16,27.30
2015,06,08,14,17,27.30
2015,06,08,14,18,27.30
2015,06,08,14,19,27.30
2015,06,08,14,20,27.30
2015,06,08,14,21,27.30
2015,06,08,14,22,27.40
2015,06,08,14,23,27.40
2015,06,08,14,24,27.40
2015,06,08,14,25,27.60
2015,06,08,14,26,27.60
2015,06,08,14,27,27.60
2015,06,08,14,28,27.70
2015,06,08,14,29,27.70
2015,06,08,14,30,27.70
2015,06,08,14,31,27.70
2015,06,08,14,32,27.70
2015,06,08,14,33,27.70
2015,06,08,14,34,27.70
2015,06,08,14,35,27.70
2015,06,08,14,36,27.70
2015,06,08,14,37,27.70
2015,06,08,14,38,27.70
2015,06,08,14,39,27.70
2015,06,08,14,40,27.70
2015,06,08,14,41,27.60
2015,06,08,14,42,27.60
2015,06,08,14,43,27.60
2015,06,08,14,44,27.40
2015,06,08,14,45,27.40
2015,06,08,14,46,27.30
2015,06,08,14,47,27.40
2015,06,08,14,48,27.40
2015,06,08,14,49,27.40
2015,06,08,14,50,27.50
2015,06,08,14,51,27.60
2015,06,08,14,52,27.60
2015,06,08,14,53,27.60
2015,06,08,14,54,27.70
2015,06,08,14,55,27.70
2015,06,08,14,56,27.70
2015,06,08,14,57,27.70
2015,06,08,14,58,27.70
2015,06,08,14,59,27.60
2015,06,08,15,00,27.60
2015,06,08,15,01,27.60
2015,06,08,15,02,27.50
2015,06,08,15,03,27.40
2015,06,08,15,04,27.30
2015,06,08,15,05,27.30
2015,06,08,15,06,27.30
2015,06,08,15,07,27.30
2015,06,08,15,08,27.30
2015,06,08,15,09,27.40
2015,06,08,15,10,27.40
2015,06,08,15,11,27.30
2015,06,08,15,12,27.30
2015,06,08,15,13,27.30
2015,06,08,15,14,27.30
2015,06,08,15,15,27.30
2015,06,08,15,16,27.30
2015,06,08,15,17,27.30
2015,06,08,15,18,27.30
2015,06,08,15,19,27.30
2015,06,08,15,20,27.30
2015,06,08,15,21,27.20
2015,06,08,15,22,27.20
2015,06,08,15,23,27.20
2015,06,08,15,24,27.20
2015,06,08,15,25,27.20
2015,06,08,15,26,27.20
2015,06,08,15,27,27.20
2015,06,08,15,28,27.30
2015,06,08,15,29,27.30
2015,06,08,15,30,27.30
2015,06,08,15,31,27.30
2015,06,08,15,32,27.30
2015,06,08,15,33,27.30
2015,06,08,15,34,27.30
2015,06,08,15,35,27.30
2015,06,08,15,36,27.30
2015,06,08,15,37,27.30
2015,06,08,15,38,27.30
2015,06,08,15,39,27.30
2015,06,08,15,40,27.40
2015,06,08,15,41,27.40
2015,06,08,15,42,27.40
2015,06,08,15,43,27.60
2015,06,08,15,44,27.60
2015,06,08,15,45,27.60
2015,06,08,15,46,27.60
2015,06,08,15,47,27.70
2015,06,08,15,48,27.60
2015,06,08,15,49,27.60
2015,06,08,15,50,27.60
2015,06,08,15,51,27.60
2015,06,08,15,52,27.70
2015,06,08,15,53,27.70
2015,06,08,15,54,27.60
2015,06,08,15,55,27.60
2015,06,08,15,56,27.50
2015,06,08,15,57,27.40
2015,06,08,15,58,27.40
2015,06,08,15,59,27.40
2015,06,08,16,00,27.40
2015,06,08,16,01,27.40
2015,06,08,16,02,27.30
2015,06,08,16,03,27.30
2015,06,08,16,04,27.30
2015,06,08,16,05,27.30
2015,06,08,16,06,27.30
2015,06,08,16,07,27.20
2015,06,08,16,08,27.20
2015,06,08,16,09,27.20
2015,06,08,16,10,27.10
2015,06,08,16,11,27.10
2015,06,08,16,12,27.00
2015,06,08,16,13,26.90
2015,06,08,16,14,26.90
2015,06,08,16,15,26.80
2015,06,08,16,16,26.60
2015,06,08,16,17,26.60
2015,06,08,16,18,26.60
2015,06,08,16,19,26.50
2015,06,08,16,20,26.40
2015,06,08,16,21,26.40
2015,06,08,16,22,26.40
2015,06,08,16,23,26.30
2015,06,08,16,24,26.30
2015,06,08,16,25,26.30
2015,06,08,16,26,26.30
2015,06,08,16,27,26.30
2015,06,08,16,28,26.20
2015,06,08,16,29,26.20
2015,06,08,16,30,26.20
2015,06,08,16,31,26.20
2015,06,08,16,32,26.20
2015,06,08,16,33,26.20
2015,06,08,16,34,26.10
2015,06,08,16,35,26.10
2015,06,08,16,36,26.00
2015,06,08,16,37,25.90
2015,06,08,16,38,25.90
2015,06,08,16,39,25.80
2015,06,08,16,40,25.80
2015,06,08,16,41,25.70
2015,06,08,16,42,25.70
2015,06,08,16,43,25.60
2015,06,08,16,44,25.60
2015,06,08,16,45,25.60
2015,06,08,16,46,25.50
2015,06,08,16,47,25.50
2015,06,08,16,48,25.50
2015,06,08,16,49,25.40
2015,06,08,16,50,25.40
2015,06,08,16,51,25.40
2015,06,08,16,52,25.40
2015,06,08,16,53,25.30
2015,06,08,16,54,25.30
2015,06,08,16,55,25.30
2015,06,08,16,56,25.30
2015,06,08,16,57,25.30
2015,06,08,16,58,25.20
2015,06,08,16,59,25.20
2015,06,08,17,00,25.20
2015,06,08,17,01,25.20
2015,06,08,17,02,25.20
2015,06,08,17,03,25.20
2015,06,08,17,04,25.20
2015,06,08,17,05,25.20
2015,06,08,17,06,25.20
2015,06,08,17,07,25.20
2015,06,08,17,08,25.20
2015,06,08,17,09,25.20
2015,06,08,17,10,25.20
2015,06,08,17,11,25.20
2015,06,08,17,12,25.20
2015,06,08,17,13,25.20
2015,06,08,17,14,25.20
2015,06,08,17,15,25.20
2015,06,08,17,16,25.20
2015,06,08,17,17,25.20
2015,06,08,17,18,25.20
2015,06,08,17,19,25.20